Time,TemperatureF,DewpointF,PressureIn,WindDirection,WindDirectionDegrees,WindSpeedMPH,WindSpeedGustMPH,Humidity,HourlyPrecipIn,Conditions,Clouds,dailyrainin,SoftwareType,DateUTC
2013-04-21 00:13:00,45.1,37.0,29.90,NNW,335,1.0,3.0,72,0.00,,,0.00,weatherlink.com 1.10,2013-04-21 06:13:00,
2013-04-21 00:28:00,44.4,36.0,29.91,SSW,210,2.0,2.0,73,0.00,,,0.00,weatherlink.com 1.10,2013-04-21 06:28:00,
2013-04-21 00:43:00,43.9,36.0,29.91,WSW,249,2.0,2.0,74,0.00,,,0.00,weatherlink.com 1.10,2013-04-21 06:43:00,
2013-04-21 00:58:00,44.0,36.0,29.91,West,266,0.0,2.0,74,0.00,,,0.00,weatherlink.com 1.10,2013-04-21 06:58:00,
2013-04-21 01:13:00,44.1,36.0,29.92,WNW,302,0.0,2.0,74,0.00,,,0.00,weatherlink.com 1.10,2013-04-21 07:13:00,
2013-04-21 01:28:00,43.9,36.0,29.92,West,259,0.0,2.0,74,0.00,,,0.00,weatherlink.com 1.10,2013-04-21 07:28:00,
2013-04-21 01:43:00,43.8,36.0,29.93,WSW,243,3.0,3.0,74,0.00,,,0.00,weatherlink.com 1.10,2013-04-21 07:43:00,
2013-04-21 01:58:00,43.5,36.0,29.93,NNW,335,4.0,6.0,76,0.00,,,0.00,weatherlink.com 1.10,2013-04-21 07:58:00,
2013-04-21 02:13:00,42.4,37.0,29.95,NNW,344,5.0,12.0,81,0.00,,,0.00,weatherlink.com 1.10,2013-04-21 08:13:00,
2013-04-21 02:28:00,41.9,37.0,29.95,North,359,9.0,12.0,83,0.00,,,0.00,weatherlink.com 1.10,2013-04-21 08:28:00,
2013-04-21 02:43:00,41.4,37.0,29.96,NNW,347,10.0,14.0,83,0.00,,,0.00,weatherlink.com 1.10,2013-04-21 08:43:00,
2013-04-21 02:58:00,41.1,37.0,29.96,NNE,26,2.0,11.0,85,0.00,,,0.00,weatherlink.com 1.10,2013-04-21 08:58:00,
2013-04-21 03:13:00,40.7,36.0,29.97,NNE,24,12.0,16.0,84,0.00,,,0.00,weatherlink.com 1.10,2013-04-21 09:13:00,
2013-04-21 03:29:00,39.5,35.0,29.99,North,349,12.0,16.0,84,0.00,,,0.00,weatherlink.com 1.10,2013-04-21 09:29:00,
2013-04-21 03:44:00,38.1,34.0,30.00,NNE,32,9.0,19.0,86,0.00,,,0.00,weatherlink.com 1.10,2013-04-21 09:44:00,
2013-04-21 03:59:00,36.9,33.0,30.01,NNE,27,17.0,17.0,86,0.00,,,0.00,weatherlink.com 1.10,2013-04-21 09:59:00,
2013-04-21 04:14:00,36.5,33.0,30.02,NE,37,6.0,16.0,87,0.00,,,0.00,weatherlink.com 1.10,2013-04-21 10:14:00,
2013-04-21 04:29:00,36.4,33.0,30.02,NNE,17,5.0,14.0,86,0.00,,,0.00,weatherlink.com 1.10,2013-04-21 10:29:00,
2013-04-21 04:44:00,35.7,32.0,30.04,NNE,32,8.0,16.0,85,0.00,,,0.00,weatherlink.com 1.10,2013-04-21 10:44:00,
2013-04-21 04:59:00,35.1,30.0,30.04,NE,46,11.0,18.0,82,0.00,,,0.00,weatherlink.com 1.10,2013-04-21 10:59:00,
2013-04-21 05:14:00,34.7,30.0,30.05,ENE,59,8.0,16.0,83,0.00,,,0.00,weatherlink.com 1.10,2013-04-21 11:14:00,
2013-04-21 05:29:00,34.6,30.0,30.05,NE,38,5.0,12.0,83,0.00,,,0.00,weatherlink.com 1.10,2013-04-21 11:29:00,
2013-04-21 05:59:00,34.4,30.0,30.06,ENE,62,5.0,15.0,83,0.00,,,0.00,weatherlink.com 1.10,2013-04-21 11:59:00,
2013-04-21 06:14:00,34.2,30.0,30.06,NE,44,10.0,18.0,83,0.00,,,0.00,weatherlink.com 1.10,2013-04-21 12:14:00,
2013-04-21 06:29:00,33.9,30.0,30.08,NNE,33,13.0,15.0,86,0.00,,,0.00,weatherlink.com 1.10,2013-04-21 12:29:00,
2013-04-21 06:44:00,32.1,29.0,30.09,NE,34,7.0,13.0,89,0.00,,,0.00,weatherlink.com 1.10,2013-04-21 12:44:00,
2013-04-21 06:59:00,32.2,28.0,30.09,North,5,7.0,19.0,84,0.00,,,0.00,weatherlink.com 1.10,2013-04-21 12:59:00,
2013-04-21 07:14:00,31.7,27.0,30.11,NNE,27,13.0,20.0,83,0.00,,,0.00,weatherlink.com 1.10,2013-04-21 13:14:00,
2013-04-21 07:29:00,31.7,27.0,30.12,NE,34,9.0,17.0,82,0.00,,,0.00,weatherlink.com 1.10,2013-04-21 13:29:00,
2013-04-21 07:44:00,31.5,26.0,30.12,NNE,25,8.0,18.0,81,0.00,,,0.00,weatherlink.com 1.10,2013-04-21 13:44:00,
2013-04-21 07:59:00,31.6,27.0,30.13,North,3,10.0,13.0,83,0.00,,,0.00,weatherlink.com 1.10,2013-04-21 13:59:00,
2013-04-21 08:14:00,31.4,27.0,30.13,NNW,346,8.0,14.0,84,0.00,,,0.00,weatherlink.com 1.10,2013-04-21 14:14:00,
2013-04-21 08:29:00,31.0,28.0,30.14,NE,44,7.0,15.0,87,0.00,,,0.00,weatherlink.com 1.10,2013-04-21 14:29:00,
2013-04-21 08:44:00,30.5,28.0,30.15,NNE,30,5.0,15.0,89,0.00,,,0.00,weatherlink.com 1.10,2013-04-21 14:44:00,
2013-04-21 09:00:00,30.5,28.0,30.16,North,1,7.0,11.0,90,0.00,,,0.00,weatherlink.com 1.10,2013-04-21 15:00:00,
2013-04-21 09:15:00,30.4,28.0,30.15,ENE,70,5.0,9.0,92,0.00,,,0.00,weatherlink.com 1.10,2013-04-21 15:15:00,
2013-04-21 09:30:00,31.2,29.0,30.15,NE,51,6.0,9.0,90,0.00,,,0.00,weatherlink.com 1.10,2013-04-21 15:30:00,
2013-04-21 09:45:00,31.8,28.0,30.15,NE,49,7.0,11.0,87,0.00,,,0.00,weatherlink.com 1.10,2013-04-21 15:45:00,
2013-04-21 10:00:00,31.3,28.0,30.16,ENE,61,10.0,14.0,88,0.00,,,0.00,weatherlink.com 1.10,2013-04-21 16:00:00,
2013-04-21 10:15:00,30.6,28.0,30.16,ENE,68,6.0,17.0,90,0.00,,,0.00,weatherlink.com 1.10,2013-04-21 16:15:00,
2013-04-21 10:30:00,30.8,29.0,30.17,NNE,15,10.0,12.0,91,0.00,,,0.00,weatherlink.com 1.10,2013-04-21 16:30:00,
2013-04-21 10:45:00,30.6,29.0,30.18,NE,45,5.0,10.0,93,0.00,,,0.00,weatherlink.com 1.10,2013-04-21 16:45:00,
2013-04-21 11:00:00,30.3,28.0,30.18,NNE,27,5.0,8.0,92,0.00,,,0.00,weatherlink.com 1.10,2013-04-21 17:00:00,
2013-04-21 11:15:00,30.3,28.0,30.18,NNE,22,4.0,7.0,90,0.00,,,0.00,weatherlink.com 1.10,2013-04-21 17:15:00,
2013-04-21 11:30:00,30.2,28.0,30.18,East,83,2.0,6.0,92,0.00,,,0.00,weatherlink.com 1.10,2013-04-21 17:30:00,
2013-04-21 11:45:00,30.4,29.0,30.18,ENE,73,6.0,6.0,94,0.00,,,0.00,weatherlink.com 1.10,2013-04-21 17:45:00,
2013-04-21 12:00:00,30.9,29.0,30.18,East,96,6.0,9.0,94,0.00,,,0.00,weatherlink.com 1.10,2013-04-21 18:00:00,
2013-04-21 12:15:00,30.8,29.0,30.18,ENE,67,4.0,10.0,93,0.00,,,0.00,weatherlink.com 1.10,2013-04-21 18:15:00,
2013-04-21 12:30:00,30.7,29.0,30.18,ENE,68,1.0,7.0,94,0.00,,,0.00,weatherlink.com 1.10,2013-04-21 18:30:00,
2013-04-21 12:45:00,30.9,29.0,30.18,NE,46,2.0,6.0,93,0.00,,,0.00,weatherlink.com 1.10,2013-04-21 18:45:00,
2013-04-21 13:00:00,30.7,29.0,30.18,ENE,69,2.0,5.0,94,0.00,,,0.00,weatherlink.com 1.10,2013-04-21 19:00:00,
2013-04-21 13:15:00,30.9,29.0,30.18,East,91,3.0,5.0,94,0.00,,,0.00,weatherlink.com 1.10,2013-04-21 19:15:00,
2013-04-21 13:30:00,30.6,29.0,30.18,NE,46,1.0,6.0,94,0.00,,,0.00,weatherlink.com 1.10,2013-04-21 19:30:00,
2013-04-21 13:45:00,30.8,30.0,30.18,ENE,76,2.0,4.0,95,0.00,,,0.00,weatherlink.com 1.10,2013-04-21 19:45:00,
2013-04-21 14:00:00,31.2,30.0,30.17,ENE,64,2.0,5.0,95,0.00,,,0.00,weatherlink.com 1.10,2013-04-21 20:00:00,
2013-04-21 14:15:00,30.9,29.0,30.18,ENE,60,2.0,5.0,94,0.00,,,0.00,weatherlink.com 1.10,2013-04-21 20:15:00,
2013-04-21 14:30:00,30.8,29.0,30.18,ENE,75,3.0,4.0,94,0.00,,,0.00,weatherlink.com 1.10,2013-04-21 20:30:00,
2013-04-21 14:45:00,31.4,30.0,30.18,East,82,0.0,2.0,94,0.01,,,0.01,weatherlink.com 1.10,2013-04-21 20:45:00,
2013-04-21 15:00:00,31.3,30.0,30.18,ENE,77,6.0,8.0,95,0.01,,,0.01,weatherlink.com 1.10,2013-04-21 21:00:00,
2013-04-21 15:15:00,32.0,30.0,30.18,East,96,2.0,7.0,93,0.01,,,0.01,weatherlink.com 1.10,2013-04-21 21:15:00,
2013-04-21 15:30:00,31.0,30.0,30.18,East,80,7.0,9.0,94,0.01,,,0.01,weatherlink.com 1.10,2013-04-21 21:30:00,
2013-04-21 15:45:00,31.8,31.0,30.17,East,87,8.0,11.0,95,0.00,,,0.01,weatherlink.com 1.10,2013-04-21 21:45:00,
2013-04-21 16:00:00,32.1,30.0,30.18,ENE,68,3.0,13.0,93,0.00,,,0.01,weatherlink.com 1.10,2013-04-21 22:00:00,
2013-04-21 16:15:00,32.5,31.0,30.18,ENE,77,10.0,13.0,92,0.00,,,0.01,weatherlink.com 1.10,2013-04-21 22:15:00,
2013-04-21 16:30:00,32.5,31.0,30.19,NE,36,6.0,14.0,92,0.00,,,0.01,weatherlink.com 1.10,2013-04-21 22:30:00,
2013-04-21 16:45:00,32.3,30.0,30.18,ENE,64,5.0,12.0,89,0.00,,,0.01,weatherlink.com 1.10,2013-04-21 22:45:00,
2013-04-21 17:00:00,32.4,30.0,30.18,ENE,68,4.0,12.0,89,0.00,,,0.01,weatherlink.com 1.10,2013-04-21 23:00:00,
2013-04-21 17:15:00,32.4,30.0,30.19,ENE,69,6.0,11.0,92,0.00,,,0.01,weatherlink.com 1.10,2013-04-21 23:15:00,
2013-04-21 17:45:00,31.6,29.0,30.19,ENE,77,6.0,12.0,91,0.00,,,0.01,weatherlink.com 1.10,2013-04-21 23:45:00,
2013-04-21 18:00:00,32.0,30.0,30.19,East,79,6.0,9.0,92,0.00,,,0.01,weatherlink.com 1.10,2013-04-22 00:00:00,
2013-04-21 18:15:00,32.0,30.0,30.19,ENE,65,6.0,12.0,93,0.00,,,0.01,weatherlink.com 1.10,2013-04-22 00:15:00,
2013-04-21 18:30:00,32.4,30.0,30.20,ENE,75,6.0,11.0,90,0.00,,,0.01,weatherlink.com 1.10,2013-04-22 00:30:00,
2013-04-21 18:45:00,32.7,29.0,30.21,North,7,5.0,14.0,85,0.00,,,0.01,weatherlink.com 1.10,2013-04-22 00:45:00,
2013-04-21 19:00:00,32.8,29.0,30.21,ENE,74,4.0,11.0,86,0.00,,,0.01,weatherlink.com 1.10,2013-04-22 01:00:00,
2013-04-21 19:15:00,33.0,29.0,30.22,ENE,58,6.0,13.0,84,0.00,,,0.01,weatherlink.com 1.10,2013-04-22 01:15:00,
2013-04-21 19:30:00,32.5,29.0,30.22,NE,49,6.0,15.0,85,0.01,,,0.02,weatherlink.com 1.10,2013-04-22 01:30:00,
2013-04-21 19:45:00,31.1,29.0,30.23,NNE,32,13.0,16.0,90,0.01,,,0.02,weatherlink.com 1.10,2013-04-22 01:45:00,
2013-04-21 20:00:00,30.7,29.0,30.25,ENE,60,11.0,16.0,93,0.01,,,0.02,weatherlink.com 1.10,2013-04-22 02:00:00,
2013-04-21 20:15:00,30.0,28.0,30.25,NE,52,10.0,14.0,92,0.01,,,0.02,weatherlink.com 1.10,2013-04-22 02:15:00,
2013-04-21 20:31:00,30.2,28.0,30.26,NE,36,3.0,12.0,91,0.00,,,0.02,weatherlink.com 1.10,2013-04-22 02:31:00,
2013-04-21 20:46:00,30.0,28.0,30.27,NE,44,5.0,16.0,92,0.00,,,0.02,weatherlink.com 1.10,2013-04-22 02:46:00,
2013-04-21 21:01:00,30.0,28.0,30.27,NE,50,2.0,11.0,93,0.00,,,0.02,weatherlink.com 1.10,2013-04-22 03:01:00,
2013-04-21 21:16:00,29.8,28.0,30.27,NE,53,6.0,14.0,93,0.00,,,0.02,weatherlink.com 1.10,2013-04-22 03:16:00,
2013-04-21 21:31:00,29.8,28.0,30.28,NE,46,10.0,13.0,92,0.00,,,0.02,weatherlink.com 1.10,2013-04-22 03:31:00,
2013-04-21 21:46:00,29.8,28.0,30.29,ENE,68,6.0,11.0,91,0.00,,,0.02,weatherlink.com 1.10,2013-04-22 03:46:00,
2013-04-21 22:01:00,29.8,27.0,30.29,NE,38,6.0,10.0,90,0.00,,,0.02,weatherlink.com 1.10,2013-04-22 04:01:00,
2013-04-21 22:16:00,29.8,28.0,30.30,East,79,2.0,8.0,91,0.00,,,0.02,weatherlink.com 1.10,2013-04-22 04:16:00,
2013-04-21 22:31:00,29.9,27.0,30.31,North,6,6.0,10.0,90,0.00,,,0.02,weatherlink.com 1.10,2013-04-22 04:31:00,
2013-04-21 22:46:00,30.0,28.0,30.31,NE,53,6.0,10.0,90,0.00,,,0.02,weatherlink.com 1.10,2013-04-22 04:46:00,
2013-04-21 23:01:00,30.1,28.0,30.31,NE,49,4.0,9.0,90,0.00,,,0.02,weatherlink.com 1.10,2013-04-22 05:01:00,
2013-04-21 23:16:00,29.8,28.0,30.31,NNE,28,6.0,11.0,91,0.00,,,0.02,weatherlink.com 1.10,2013-04-22 05:16:00,
2013-04-21 23:31:00,29.9,27.0,30.31,NE,53,4.0,10.0,90,0.00,,,0.02,weatherlink.com 1.10,2013-04-22 05:31:00,
2013-04-21 23:46:00,29.9,27.0,30.32,NE,46,4.0,9.0,90,0.00,,,0.02,weatherlink.com 1.10,2013-04-22 05:46:00,